Weather History for KMQB - September, 2013

Change the Weather History Date:

Sunday, September 29, 2013

  Actual Average (KBRL) Record (KBRL)
Temperature  
Mean Temperature 60 °F 62 °F  
Max Temperature 74 °F 73 °F 99 °F (1953)
Min Temperature 46 °F 50 °F 28 °F (1899)
Degree Days  
Heating Degree Days 5 5  
Month to date heating degree days 61  
Since 1 July heating degree days 65  
Cooling Degree Days 0 2  
Month to date cooling degree days 138  
Year to date cooling degree days 1181  
Growing Degree Days 10 (Base 50)    
Moisture  
Dew Point 47 °F    
Average Humidity 71    
Maximum Humidity 99    
Minimum Humidity 26    
Precipitation  
Precipitation 0.01 in 0.10 in - ()
Month to date precipitation 3.43  
Year to date precipitation 30.68  
Sea Level Pressure  
Sea Level Pressure 30.06 in    
Wind  
Wind Speed 4 mph (North)    
Max Wind Speed 8 mph    
Max Gust Speed -    
Visibility 8 miles    
Events Fog    
T = Trace of Precipitation, MM = Missing Value Source: NWS Daily Summary

Daily Weather History Graph

Daily Weather History Graph

Search for Another Location

Airport or City:

Trip Planner

Search our weather history database for the weather conditions in past years. The results will help you decide how hot, cold, wet, or windy it might be!

Date:

Astronomy

Sep. 29, 2013 Rise Set
Actual Time 6:57 AM CDT 6:47 PM CDT
Civil Twilight 6:30 AM CDT 7:14 PM CDT
Nautical Twilight 5:58 AM CDT 7:46 PM CDT
Astronomical Twilight 5:26 AM CDT 8:18 PM CDT
Moon 1:37 AM CDT (9/29) 3:44 PM CDT (9/29)
Length of Visible Light 12h 44m
Length of Day
11h 50m
Waning Crescent, 27% of the Moon is Illuminated
Sep 29
Waning Crescent
Oct 4
New
Oct 11
First Quarter
Oct 18
Full
Oct 26
Last Quarter

Hourly Weather History & Observations

Time (CDT) Temp. Dew Point Humidity Pressure Visibility Wind Dir Wind Speed Gust Speed Precip Events Conditions
12:15 AM 58.1 °F 56.3 °F 94% 30.07 in 10.0 mi WNW 6.9 mph - N/A   Clear
12:35 AM 57.4 °F 55.8 °F 94% 30.07 in 10.0 mi WNW 4.6 mph - N/A   Clear
12:55 AM 56.7 °F 55.4 °F 96% 30.07 in 10.0 mi WNW 3.5 mph - N/A   Clear
1:15 AM 56.3 °F 54.9 °F 95% 30.07 in 10.0 mi Calm Calm - N/A   Clear
1:35 AM 55.6 °F 54.5 °F 96% 30.07 in 10.0 mi WNW 3.5 mph - N/A   Clear
1:55 AM 54.9 °F 53.6 °F 96% 30.07 in 10.0 mi WNW 4.6 mph - N/A   Clear
2:15 AM 53.8 °F 52.7 °F 96% 30.08 in 10.0 mi West 3.5 mph - N/A   Clear
2:35 AM 53.2 °F 52.2 °F 96% 30.07 in 7.0 mi West 4.6 mph - N/A   Clear
2:55 AM 52.3 °F 51.3 °F 96% 30.07 in 7.0 mi WNW 5.8 mph - N/A   Clear
3:15 AM 52.2 °F 51.3 °F 97% 30.07 in 5.0 mi West 5.8 mph - N/A   Clear
3:35 AM 52.0 °F 51.1 °F 97% 30.07 in 0.5 mi WNW 3.5 mph - N/A Fog Fog
3:55 AM 51.3 °F 50.4 °F 97% 30.07 in 0.5 mi WNW 3.5 mph - N/A Fog Fog
4:15 AM 50.9 °F 50.0 °F 97% 30.08 in 0.8 mi WNW 3.5 mph - N/A   Overcast
4:35 AM 50.2 °F 49.5 °F 97% 30.07 in 0.5 mi WNW 4.6 mph - N/A Fog Fog
4:55 AM 49.6 °F 49.1 °F 98% 30.07 in 1.8 mi WNW 4.6 mph - N/A   Mostly Cloudy
5:15 AM 49.3 °F 48.6 °F 97% 30.08 in 0.5 mi WNW 4.6 mph - N/A Fog Fog
5:35 AM 49.1 °F 48.2 °F 97% 30.08 in 3.0 mi WNW 4.6 mph - N/A   Mostly Cloudy
5:55 AM 48.7 °F 48.2 °F 98% 30.08 in 0.5 mi West 3.5 mph - N/A Fog Fog
6:15 AM 48.0 °F 47.3 °F 97% 30.08 in 0.8 mi Calm Calm - N/A   Overcast
6:35 AM 46.9 °F 46.4 °F 98% 30.09 in 4.0 mi Calm Calm - N/A   Scattered Clouds
6:55 AM 47.3 °F 46.6 °F 97% 30.09 in 10.0 mi West 3.5 mph - N/A   Clear
7:15 AM 46.8 °F 46.4 °F 99% 30.09 in 10.0 mi Calm Calm - 0.01 in   Clear
7:35 AM 48.2 °F 47.7 °F 98% 30.10 in 10.0 mi West 3.5 mph - 0.01 in   Clear
7:55 AM 50.4 °F 50.0 °F 99% 30.10 in 10.0 mi Calm Calm - 0.01 in   Clear
8:15 AM 52.3 °F 51.8 °F 98% 30.11 in 10.0 mi Calm Calm - N/A   Clear
8:35 AM 54.7 °F 54.1 °F 98% 30.11 in 10.0 mi Calm Calm - N/A   Clear
8:55 AM 55.9 °F 55.4 °F 98% 30.11 in 10.0 mi Calm Calm - N/A   Clear
9:15 AM 58.1 °F 56.8 °F 96% 30.11 in 10.0 mi Calm Calm - N/A   Clear
9:35 AM 60.8 °F 55.4 °F 82% 30.11 in 10.0 mi Calm Calm - N/A   Clear
9:55 AM 62.4 °F 54.5 °F 75% 30.12 in 10.0 mi North 3.5 mph - N/A   Clear
10:15 AM 63.9 °F 52.9 °F 67% 30.12 in 10.0 mi North 4.6 mph - N/A   Clear
10:35 AM 65.5 °F 51.6 °F 61% 30.12 in 10.0 mi Calm Calm - N/A   Clear
10:55 AM 67.1 °F 47.5 °F 49% 30.12 in 10.0 mi NNE 6.9 mph - N/A   Clear
11:15 AM 67.8 °F 45.7 °F 45% 30.12 in 10.0 mi Calm Calm - N/A   Clear
11:35 AM 68.9 °F 44.8 °F 42% 30.11 in 10.0 mi NE 4.6 mph - N/A   Clear
11:55 AM 69.6 °F 42.1 °F 37% 30.11 in 10.0 mi NE 6.9 mph - N/A   Clear
12:15 PM 70.2 °F 42.3 °F 36% 30.10 in 10.0 mi NNE 5.8 mph - N/A   Clear
12:35 PM 70.3 °F 43.2 °F 37% 30.10 in 10.0 mi North 6.9 mph - N/A   Clear
12:55 PM 70.9 °F 42.3 °F 36% 30.09 in 10.0 mi East 6.9 mph - N/A   Clear
1:15 PM 72.0 °F 39.9 °F 31% 30.08 in 10.0 mi NE 6.9 mph - N/A   Clear
1:35 PM 72.1 °F 39.9 °F 31% 30.08 in 7.0 mi NNE 6.9 mph - N/A   Clear
1:55 PM 72.7 °F 39.0 °F 29% 30.06 in 10.0 mi NNE 3.5 mph - N/A   Clear
2:15 PM 72.7 °F 40.3 °F 31% 30.05 in 10.0 mi East 6.9 mph - N/A   Clear
2:35 PM 73.8 °F 39.2 °F 29% 30.05 in 10.0 mi ENE 8.1 mph - N/A   Clear
2:55 PM 73.8 °F 38.3 °F 28% 30.04 in 10.0 mi East 6.9 mph - N/A   Clear
3:15 PM 73.9 °F 38.7 °F 28% 30.04 in 10.0 mi ENE 8.1 mph - N/A   Clear
3:35 PM 74.5 °F 39.7 °F 29% 30.03 in 10.0 mi NE 5.8 mph - N/A   Clear
3:55 PM 74.5 °F 38.5 °F 27% 30.03 in 10.0 mi NE 3.5 mph - N/A   Clear
4:15 PM 74.7 °F 37.2 °F 26% 30.03 in 10.0 mi ENE 8.1 mph - N/A   Clear
4:35 PM 73.8 °F 37.6 °F 27% 30.03 in 10.0 mi North 5.8 mph - N/A   Clear
4:55 PM 74.1 °F 37.4 °F 26% 30.03 in 3.0 mi NNE 4.6 mph - N/A   Haze
5:15 PM 73.6 °F 36.5 °F 26% 30.03 in 10.0 mi Calm Calm - N/A   Clear
5:35 PM 73.4 °F 37.2 °F 27% 30.03 in 10.0 mi East 4.6 mph - N/A   Clear
5:55 PM 72.7 °F 36.9 °F 27% 30.03 in 10.0 mi ESE 4.6 mph - N/A   Clear
6:15 PM 71.2 °F 37.4 °F 29% 30.02 in 10.0 mi Calm Calm - N/A   Clear
6:35 PM 66.7 °F 45.5 °F 46% 30.02 in 10.0 mi Calm Calm - N/A   Clear
6:55 PM 62.4 °F 46.0 °F 55% 30.02 in 10.0 mi Calm Calm - N/A   Clear
7:15 PM 57.7 °F 48.6 °F 71% 30.02 in 10.0 mi SE 3.5 mph - N/A   Clear
7:35 PM 55.6 °F 47.7 °F 75% 30.02 in 10.0 mi Calm Calm - N/A   Clear
7:55 PM 54.7 °F 48.4 °F 79% 30.02 in 10.0 mi Calm Calm - N/A   Clear
8:15 PM 53.2 °F 48.0 °F 82% 30.02 in 10.0 mi Calm Calm - N/A   Clear
8:35 PM 52.5 °F 47.7 °F 84% 30.03 in 10.0 mi Calm Calm - N/A   Clear
8:55 PM 51.6 °F 47.5 °F 86% 30.03 in 10.0 mi Calm Calm - N/A   Clear
9:15 PM 50.5 °F 46.8 °F 87% 30.03 in 10.0 mi ENE 3.5 mph - N/A   Clear
9:35 PM 50.9 °F 46.8 °F 86% 30.03 in 10.0 mi Calm Calm - N/A   Clear
9:55 PM 50.0 °F 46.6 °F 88% 30.03 in 10.0 mi Calm Calm - N/A   Clear
10:15 PM 49.6 °F 46.6 °F 89% 30.03 in 10.0 mi Calm Calm - N/A   Clear
10:35 PM 49.1 °F 46.4 °F 90% 30.03 in 7.0 mi Calm Calm - N/A   Clear
10:55 PM 48.4 °F 45.9 °F 91% 30.03 in 10.0 mi Calm Calm - N/A   Clear
11:15 PM 48.2 °F 45.7 °F 91% 30.03 in 10.0 mi Calm Calm - N/A   Clear
11:35 PM 47.7 °F 45.0 °F 90% 30.02 in 10.0 mi Calm Calm - N/A   Clear
11:55 PM 47.5 °F 45.3 °F 92% 30.02 in 10.0 mi Calm Calm - N/A   Clear